Weather History for Fosston, MN

Change the Weather History Date:

Thursday, October 4, 2012

  Actual Average Record
Temperature  
Mean Temperature 36 °F -  
Max Temperature 42 °F 61 °F 84 °F (1975)
Min Temperature 30 °F 35 °F 17 °F (1989)
Degree Days  
Heating Degree Days 29    
Moisture  
Dew Point 33 °F    
Average Humidity 93    
Maximum Humidity 100    
Minimum Humidity 81    
Precipitation  
Precipitation 0.18 in - - ()
Sea Level Pressure  
Sea Level Pressure 29.91 in    
Wind  
Wind Speed 21 mph (NW)    
Max Wind Speed 30 mph    
Max Gust Speed 40 mph    
Visibility 5 miles    
Events Rain , Snow , Thunderstorm    
Averages and records for this station are not official NWS values.
T = Trace of Precipitation, MM = Missing Value Source: NWS Daily Summary

Daily Weather History Graph

Daily Weather History Graph

Search for Another Location

Airport:

Trip Planner

Search our weather history database for the weather conditions in past years. The results will help you decide how hot, cold, wet, or windy it might be!

Date:

Astronomy

Oct. 04, 2012 Rise Set
Actual Time 7:27 AM CDT 6:55 PM CDT
Civil Twilight 6:56 AM CDT 7:26 PM CDT
Nautical Twilight 6:20 AM CDT 8:01 PM CDT
Astronomical Twilight 5:44 AM CDT 8:37 PM CDT
Moon 9:12 PM CDT (10/4) 12:04 PM CDT (10/4)
Length of Visible Light 12h 29m
Length of Day
11h 28m
Waning Gibbous, 82% of the Moon is Illuminated
Oct 4
Waning Gibbous
Oct 8
Last Quarter
Oct 15
New
Oct 21
First Quarter
Oct 29
Full

Hourly Weather History & Observations

Time (CDT) Temp. Windchill Dew Point Humidity Pressure Visibility Wind Dir Wind Speed Gust Speed Precip Events Conditions
12:15 AM 42.8 °F 34.8 °F 37.4 °F 81% 29.89 in 10.0 mi NNE 17.3 mph 27.6 mph N/A Rain Light Rain
12:35 AM 42.8 °F 35.1 °F 39.2 °F 87% 29.87 in 10.0 mi NE 16.1 mph 24.2 mph N/A   Light Drizzle
12:55 AM 42.8 °F 35.1 °F 39.2 °F 87% 29.87 in 10.0 mi NNE 16.1 mph 29.9 mph N/A   Overcast
1:15 AM 42.8 °F 35.1 °F 39.2 °F 87% 29.87 in 10.0 mi NNE 16.1 mph 24.2 mph N/A Rain Light Rain
1:35 AM 42.8 °F 35.1 °F 39.2 °F 87% 29.86 in 10.0 mi North 16.1 mph 26.5 mph N/A   Overcast
1:55 AM 42.8 °F 34.3 °F 39.2 °F 87% 29.86 in 10.0 mi North 19.6 mph 23.0 mph N/A Thunderstorm Overcast
2:15 AM 42.8 °F 34.0 °F 39.2 °F 87% 29.85 in 10.0 mi North 20.7 mph 26.5 mph N/A Rain Light Rain
2:35 AM 42.8 °F 34.3 °F 39.2 °F 87% 29.84 in 10.0 mi North 19.6 mph 28.8 mph N/A Rain Light Rain
2:55 AM 41.0 °F 32.2 °F 37.4 °F 87% 29.82 in 10.0 mi NNE 18.4 mph 29.9 mph 0.01 in Rain Light Rain
3:15 AM 41.0 °F 31.6 °F 37.4 °F 87% 29.81 in 10.0 mi NNE 20.7 mph 26.5 mph 0.01 in Rain Light Rain
3:35 AM 41.0 °F 31.9 °F 37.4 °F 87% 29.79 in 10.0 mi NNE 19.6 mph 26.5 mph 0.02 in Rain Light Rain
3:55 AM 41.0 °F 31.4 °F 37.4 °F 87% 29.79 in 10.0 mi NNE 21.9 mph 27.6 mph 0.03 in Rain Light Rain
4:16 AM 41.0 °F 32.2 °F 37.4 °F 87% 29.79 in 10.0 mi North 18.4 mph 25.3 mph 0.01 in Rain Light Rain
4:35 AM 41.0 °F 32.5 °F 37.4 °F 87% 29.79 in 10.0 mi North 17.3 mph 26.5 mph 0.01 in   Overcast
4:55 AM 39.2 °F 30.8 °F 37.4 °F 93% 29.80 in 10.0 mi North 15.0 mph 20.7 mph 0.01 in Rain Light Rain
5:16 AM 39.2 °F 30.5 °F 37.4 °F 93% 29.79 in 10.0 mi North 16.1 mph 23.0 mph N/A   Light Drizzle
5:35 AM 39.2 °F 29.3 °F 37.4 °F 93% 29.79 in 10.0 mi North 20.7 mph 24.2 mph N/A   Overcast
5:55 AM 39.2 °F 28.5 °F 37.4 °F 93% 29.77 in 10.0 mi North 24.2 mph 28.8 mph N/A   Light Drizzle
6:15 AM 39.2 °F 29.0 °F 37.4 °F 93% 29.78 in 10.0 mi NNW 21.9 mph 26.5 mph N/A Thunderstorm Unknown
6:35 AM 37.4 °F 25.9 °F 35.6 °F 93% 29.79 in 2.0 mi NW 25.3 mph 31.1 mph N/A   Light Drizzle
6:55 AM 33.8 °F 21.3 °F 32.0 °F 93% 29.80 in 1.5 mi NW 24.2 mph 27.6 mph N/A   Drizzle
7:15 AM 32.0 °F 17.9 °F 30.2 °F 93% 29.80 in 1.5 mi NW 28.8 mph 34.5 mph 0.01 in   Heavy Drizzle
7:35 AM 32.0 °F 18.4 °F 30.2 °F 93% 29.80 in 1.8 mi NW 26.5 mph 36.8 mph 0.04 in   Overcast
7:55 AM 30.2 °F 16.2 °F 30.2 °F 100% 29.80 in 2.0 mi NW 25.3 mph 33.4 mph 0.07 in   Overcast
8:15 AM 30.2 °F 16.8 °F 30.2 °F 100% 29.81 in 3.0 mi NW 23.0 mph 31.1 mph 0.01 in   Overcast
8:35 AM 30.2 °F 16.5 °F 30.2 °F 100% 29.81 in 2.5 mi NW 24.2 mph 34.5 mph 0.01 in Snow Light Snow
8:55 AM 30.2 °F 16.2 °F 30.2 °F 100% 29.82 in 0.8 mi NW 25.3 mph 36.8 mph 0.02 in Snow Light Snow
9:15 AM 30.2 °F 15.7 °F 30.2 °F 100% 29.82 in 0.8 mi NW 27.6 mph 36.8 mph 0.01 in Snow Light Snow
9:35 AM 30.2 °F 15.9 °F 30.2 °F 100% 29.82 in 1.0 mi NW 26.5 mph 35.7 mph 0.01 in Snow Light Snow
9:55 AM 30.2 °F 16.5 °F 30.2 °F 100% 29.82 in 1.0 mi NW 24.2 mph 29.9 mph 0.01 in Snow Light Snow
10:15 AM 30.2 °F 17.1 °F 30.2 °F 100% 29.83 in 1.2 mi NW 21.9 mph 34.5 mph N/A Snow Light Snow
10:35 AM 30.2 °F 17.4 °F 30.2 °F 100% 29.84 in 0.8 mi NW 20.7 mph 28.8 mph N/A Snow Light Snow
10:55 AM 30.2 °F 18.5 °F 30.2 °F 100% 29.85 in 0.5 mi WNW 17.3 mph 27.6 mph 0.01 in Snow Snow
11:15 AM 30.2 °F 17.4 °F 30.2 °F 100% 29.86 in 0.5 mi WNW 20.7 mph 25.3 mph 0.01 in Snow Snow
11:35 AM 30.2 °F 17.1 °F 30.2 °F 100% 29.87 in 0.5 mi WNW 21.9 mph 31.1 mph 0.02 in Snow Snow
11:55 AM 30.2 °F 17.1 °F 30.2 °F 100% 29.87 in 0.5 mi WNW 21.9 mph 34.5 mph 0.02 in Snow Snow
12:15 PM 30.2 °F 16.5 °F 30.2 °F 100% 29.89 in 0.5 mi WNW 24.2 mph 34.5 mph N/A Snow Snow
12:35 PM 30.2 °F 16.8 °F 30.2 °F 100% 29.90 in 0.5 mi WNW 23.0 mph 38.0 mph N/A Snow Light Snow
12:55 PM 30.2 °F 16.5 °F 30.2 °F 100% 29.91 in 0.8 mi WNW 24.2 mph 38.0 mph N/A Snow Light Snow
1:35 PM 32.0 °F 19.5 °F 30.2 °F 93% 29.93 in 1.0 mi WNW 21.9 mph 35.7 mph N/A Snow Light Snow
1:55 PM 32.0 °F 19.2 °F 30.2 °F 93% 29.94 in 1.8 mi WNW 23.0 mph 35.7 mph N/A Snow Light Snow
2:15 PM 33.8 °F 20.8 °F 30.2 °F 87% 29.94 in 3.0 mi WNW 26.5 mph 33.4 mph N/A Snow Light Snow
2:35 PM 32.0 °F 18.6 °F 30.2 °F 93% 29.95 in 1.8 mi WNW 25.3 mph 34.5 mph N/A Snow Light Snow
2:55 PM 33.8 °F 20.5 °F 30.2 °F 87% 29.96 in 2.5 mi WNW 27.6 mph 35.7 mph N/A   Overcast
3:15 PM 33.8 °F 21.9 °F 30.2 °F 87% 29.97 in 2.5 mi WNW 21.9 mph 39.1 mph N/A Snow Light Snow
3:35 PM 33.8 °F 20.1 °F 30.2 °F 87% 29.98 in 2.5 mi WNW 29.9 mph 40.3 mph N/A Snow Light Snow
3:55 PM 32.0 °F 19.2 °F 30.2 °F 93% 29.99 in 2.5 mi WNW 23.0 mph 31.1 mph N/A Snow Light Snow
4:16 PM 32.0 °F 19.8 °F 30.2 °F 93% 30.00 in 1.5 mi WNW 20.7 mph 36.8 mph N/A Snow Light Snow
4:35 PM 32.0 °F 18.9 °F 30.2 °F 93% 30.01 in 1.5 mi WNW 24.2 mph 34.5 mph N/A Snow Light Snow
4:55 PM 32.0 °F 19.5 °F 30.2 °F 93% 30.01 in 1.8 mi WNW 21.9 mph 29.9 mph N/A Snow Light Snow
5:16 PM 32.0 °F 19.5 °F 30.2 °F 93% 30.02 in 1.5 mi WNW 21.9 mph 29.9 mph N/A Snow Light Snow
5:35 PM 32.0 °F 20.1 °F 30.2 °F 93% 30.03 in 2.5 mi WNW 19.6 mph 32.2 mph N/A Snow Light Snow
5:55 PM 32.0 °F 18.9 °F 30.2 °F 93% 30.03 in 3.0 mi WNW 24.2 mph 33.4 mph N/A Snow Light Snow
6:16 PM 32.0 °F 19.8 °F 30.2 °F 93% 30.04 in 3.0 mi WNW 20.7 mph 33.4 mph N/A Snow Light Snow
6:35 PM 32.0 °F 19.5 °F 30.2 °F 93% 30.04 in 4.0 mi WNW 21.9 mph 31.1 mph N/A Snow Light Snow
6:55 PM 32.0 °F 19.5 °F 30.2 °F 93% 30.05 in 5.0 mi WNW 21.9 mph 35.7 mph N/A Snow Light Snow
7:15 PM 32.0 °F 19.8 °F 30.2 °F 93% 30.05 in 7.0 mi WNW 20.7 mph 32.2 mph N/A Snow Light Snow
7:35 PM 32.0 °F 19.5 °F 30.2 °F 93% 30.06 in 7.0 mi WNW 21.9 mph 32.2 mph N/A   Overcast
7:56 PM 30.2 °F 18.5 °F 30.2 °F 100% 30.06 in 3.0 mi WNW 17.3 mph 26.5 mph N/A Snow Light Snow
9:15 PM 32.0 °F 19.5 °F 30.2 °F 93% 30.05 in 4.0 mi WNW 21.9 mph 32.2 mph N/A   Overcast
9:35 PM 32.0 °F 19.5 °F 30.2 °F 93% 30.06 in 7.0 mi WNW 21.9 mph 35.7 mph N/A Snow Light Snow
9:56 PM 32.0 °F 18.9 °F 30.2 °F 93% 30.06 in 10.0 mi WNW 24.2 mph 31.1 mph N/A Snow Light Snow
10:15 PM 32.0 °F 19.2 °F 30.2 °F 93% 30.06 in 10.0 mi WNW 23.0 mph 34.5 mph N/A   Overcast
10:35 PM 32.0 °F 19.2 °F 30.2 °F 93% 30.07 in 10.0 mi WNW 23.0 mph 33.4 mph N/A   Overcast
10:56 PM 32.0 °F 20.1 °F 30.2 °F 93% 30.07 in 7.0 mi WNW 19.6 mph 33.4 mph N/A   Overcast
11:15 PM 32.0 °F 19.8 °F 30.2 °F 93% 30.07 in 5.0 mi WNW 20.7 mph 31.1 mph N/A Snow Light Snow
11:35 PM 30.2 °F 17.1 °F 30.2 °F 100% 30.07 in 7.0 mi WNW 21.9 mph 29.9 mph N/A   Overcast
11:56 PM 30.2 °F 16.5 °F 30.2 °F 100% 30.08 in 7.0 mi WNW 24.2 mph 33.4 mph N/A Snow Light Snow